Wind_Speed
24 23 25 26 28 29 30 32 34 37 39 41 43 43 42 35 30 24 27 25 29 30 32 35 38 40 41 41 39 40 41 38 42 44 49 55 64 50 60 54 53 57 66 99 112
23 24 26 27 28 29 31 32 37 40 40 43 45 43 40 32 25 28 27 28 32 32 35 36 38 40 39 38 39 41 44 41 41 45 48 54 61 68 75 56 60 43 58 76 98
24 25 27 29 32 32 34 37 38 38 41 42 39 34 23 22 23 25 25 29 31 32 35 37 38 37 38 39 41 42 44 41 40 44 52 53 57 65 71 71 62 41 51 73 92
27 30 32 34 35 36 39 40 40 40 42 38 31 21 15 18 20 23 26 29 30 33 37 39 38 37 39 41 43 45 45 43 43 46 50 56 57 64 68 72 66 55 48 56 79
32 35 35 35 38 41 41 42 41 42 41 34 24 17 17 18 22 25 27 28 32 37 39 39 36 37 42 44 48 51 51 47 43 46 49 57 56 63 64 68 69 62 50 52 53
35 37 38 40 42 43 42 43 43 41 37 27 24 21 21 23 24 28 28 31 34 38 39 38 37 41 44 48 50 52 53 51 43 47 51 61 61 63 61 64 69 65 54 48 52
38 41 43 46 48 48 46 42 38 37 33 27 26 23 24 25 28 29 31 34 37 38 39 37 38 42 46 48 51 53 53 49 43 48 51 59 65 66 61 61 65 70 59 37 48
43 44 44 45 46 45 41 38 35 34 30 29 28 26 27 29 30 31 34 37 39 39 38 36 39 43 46 48 51 54 56 54 47 49 50 59 65 70 65 63 64 66 65 48 39
37 43 47 50 51 50 43 36 34 33 29 30 29 30 30 32 32 33 36 39 40 38 37 39 41 43 46 50 52 56 57 54 50 51 56 59 65 63 65 67 59 60 65 61 31
40 44 48 48 47 46 48 44 38 35 32 31 29 31 33 33 33 36 39 41 39 37 38 40 43 46 49 52 53 56 58 58 52 51 57 61 65 65 72 72 69 60 59 59 41
37 40 39 35 37 36 37 41 38 35 33 28 30 35 33 33 35 38 41 40 38 39 40 44 46 48 50 53 55 58 58 56 55 51 55 65 69 70 71 71 75 65 56 54 48
31 30 24 20 23 26 29 32 33 33 30 30 34 34 33 34 38 41 40 38 39 41 42 46 49 51 53 55 57 59 60 58 59 60 58 63 72 72 72 73 75 74 58 52 46
26 23 12 10 15 20 25 28 28 27 30 34 33 33 35 38 41 42 40 40 42 44 45 50 52 53 56 57 59 61 61 62 61 62 68 63 70 75 76 71 75 77 67 49 47
27 21 16 14 15 18 22 23 25 29 30 33 34 36 38 41 43 44 42 44 47 47 50 53 57 57 60 63 62 64 64 65 67 67 69 70 66 72 76 76 76 76 77 54 45
30 27 22 20 20 21 24 25 25 27 29 36 38 39 42 44 45 48 47 48 50 52 54 57 60 61 63 65 65 66 68 68 70 71 73 73 72 73 74 78 75 74 79 68 45
33 34 31 29 28 27 27 27 28 33 36 38 41 44 46 48 49 50 52 53 54 55 57 60 63 64 65 68 69 69 70 71 73 74 74 74 76 71 69 79 78 76 78 75 49
35 38 37 35 35 34 33 34 35 40 42 42 45 47 48 52 54 54 54 56 58 60 62 64 68 68 68 71 72 73 74 76 75 76 75 74 74 76 71 81 84 81 80 74 64
35 40 43 42 40 40 40 41 41 47 48 47 48 51 53 56 58 57 55 58 64 67 68 68 69 71 71 73 74 74 76 79 80 79 79 76 76 79 74 84 84 86 82 78 71
28 36 47 46 47 46 46 45 48 52 52 52 53 55 57 61 61 59 60 62 67 70 74 73 73 74 75 76 76 74 78 81 82 82 81 75 75 83 76 86 85 88 89 86 77
31 31 35 46 52 52 50 51 55 57 57 57 58 60 61 64 64 64 64 66 70 74 76 76 78 78 77 77 77 79 81 84 85 87 81 77 75 84 80 85 85 88 89 88 84
42 42 42 39 42 46 52 57 59 62 62 62 62 64 65 67 69 69 70 72 74 78 79 80 78 77 78 79 82 83 84 87 86 89 87 79 76 88 85 87 88 90 89 89 87
50 51 52 52 50 52 53 54 58 62 64 66 67 69 70 73 73 75 75 79 81 82 82 83 79 79 82 84 86 86 88 89 89 92 90 87 80 90 88 90 93 93 92 92 93
58 56 59 61 60 61 61 62 64 68 71 72 73 75 78 79 80 79 82 85 86 87 87 85 83 84 86 88 90 89 91 93 93 97 93 90 91 93 93 91 95 96 97 96 95
64 62 64 63 67 67 68 68 72 75 77 79 78 81 83 83 86 85 89 91 91 92 91 91 88 87 91 95 96 95 93 96 97 99 96 92 92 99 98 94 96 97 99 99 100
72 71 71 68 73 73 74 72 78 81 83 84 84 88 91 90 92 94 96 97 96 99 96 96 93 94 94 100 99 98 97 99 103 103 100 95 99 101 97 99 100 103 104 104 103
79 79 78 76 77 79 79 78 80 85 86 87 90 93 95 95 98 99 102 101 99 98 100 101 100 102 99 102 103 99 97 105 105 108 107 104 98 110 103 104 106 108 105 106 103
83 84 85 82 84 83 82 83 85 88 85 90 93 96 96 98 102 102 103 103 103 101 104 106 107 110 107 106 105 96 101 105 108 111 112 108 108 106 109 109 112 112 110 108 102
Wind_Direction
251 241 248 253 260 261 263 269 275 279 280 281 284 286 287 282 279 256 257 270 287 293 298 300 302 305 309 318 320 322 322 320 316 310 304 315 316 305 297 302 260 256 238 234 235
245 244 252 256 258 260 265 271 274 277 281 289 289 288 282 269 259 247 261 278 286 295 300 301 306 313 318 320 324 324 325 324 319 312 314 321 323 308 311 299 315 257 236 231 236
242 246 252 255 259 263 267 268 273 282 287 291 292 290 271 248 239 249 271 281 289 296 298 305 310 315 318 320 322 324 327 327 321 318 323 324 327 317 312 314 313 293 252 240 239
243 249 255 256 263 266 268 272 276 281 287 289 289 274 241 235 246 266 276 284 293 297 301 307 313 316 315 317 324 328 332 327 327 327 331 333 341 327 321 316 313 311 288 272 244
248 253 261 266 267 267 269 273 275 280 283 283 266 249 242 252 267 276 284 292 296 299 303 307 313 313 315 323 328 329 329 326 328 332 335 335 346 342 329 319 316 316 309 284 253
258 261 261 262 264 266 269 273 277 279 279 267 244 246 253 263 274 282 290 296 299 303 305 307 310 313 319 325 328 327 326 325 327 333 338 334 343 344 341 324 320 319 316 290 258
262 263 264 265 266 267 269 271 271 278 272 249 239 249 261 272 277 284 293 298 302 304 304 307 308 315 322 327 328 328 326 325 324 330 336 336 340 345 347 337 327 320 320 311 264
267 268 267 269 268 264 264 262 268 272 264 240 241 250 260 272 277 286 295 300 303 304 305 309 312 318 324 328 329 331 328 327 328 331 335 337 342 349 351 343 336 325 323 330 274
271 276 275 273 266 261 256 258 264 264 253 235 243 255 263 272 277 289 297 301 302 304 307 310 316 322 326 330 330 331 329 328 328 332 336 338 343 350 354 355 351 341 330 325 309
282 282 280 272 263 254 246 247 254 262 239 237 249 260 268 273 283 291 299 300 301 305 308 315 321 324 326 327 329 330 331 330 328 332 334 336 339 345 350 354 0 354 339 328 327
287 290 287 268 250 244 234 235 241 250 237 247 258 265 270 280 287 295 299 299 301 306 313 318 320 323 325 326 327 329 332 333 329 332 334 336 336 340 346 350 354 2 350 336 323
288 297 290 256 223 218 218 222 238 237 243 256 261 266 277 285 294 299 300 299 303 308 315 316 318 322 323 325 326 329 333 334 333 331 333 334 333 337 344 350 353 358 355 342 327
276 289 281 232 212 207 215 230 236 242 253 256 262 272 282 290 295 299 298 300 305 309 312 312 314 317 320 322 325 327 329 332 333 333 330 332 331 335 338 344 347 352 1 343 332
263 269 264 240 229 228 232 235 242 251 258 264 271 278 286 293 296 300 300 302 304 307 309 308 310 314 317 318 320 323 326 329 331 332 329 328 329 329 332 335 345 350 357 351 337
255 253 253 246 237 238 243 246 253 261 264 271 276 284 289 295 299 300 299 302 303 302 305 306 308 312 315 316 318 320 322 326 328 331 331 328 328 326 329 331 343 348 351 358 345
250 245 248 245 244 243 248 256 262 266 267 271 278 284 289 293 298 300 297 298 300 300 301 304 307 310 315 314 317 317 318 322 325 327 329 326 326 326 330 329 339 342 345 353 354
250 244 246 246 246 249 253 258 260 266 269 274 280 284 289 292 295 297 295 294 297 298 301 303 306 309 312 313 314 315 315 318 321 324 327 326 325 326 330 329 335 338 342 349 355
256 249 247 249 249 250 253 257 262 265 270 277 282 286 288 291 293 295 295 295 297 298 300 304 304 307 309 311 311 311 313 316 319 322 324 326 324 322 328 327 333 334 340 344 349
284 264 254 251 253 255 257 261 265 270 277 280 282 285 287 289 293 293 293 295 295 298 299 303 303 305 307 307 308 310 311 314 316 321 321 324 324 320 327 325 331 330 335 338 345
293 290 276 260 259 259 262 265 267 272 277 280 283 285 286 288 291 292 294 293 295 295 298 301 302 303 305 305 307 308 311 313 316 319 318 320 324 317 325 323 326 327 332 335 340
286 287 286 281 271 266 267 268 271 275 277 280 282 284 286 287 290 290 292 292 292 293 297 298 300 302 301 303 306 308 310 312 315 316 316 316 323 315 322 323 324 325 329 333 337
280 280 278 277 276 275 274 275 276 276 277 281 282 284 285 286 286 289 290 290 291 293 295 296 298 299 301 302 305 308 309 310 312 313 314 315 319 317 319 322 321 324 326 329 331
276 276 276 276 275 274 273 275 277 277 278 279 281 282 282 282 286 288 289 289 291 292 294 295 297 298 299 301 304 307 307 309 310 309 311 314 314 316 317 320 318 321 323 326 329
273 273 273 274 273 274 275 276 275 275 276 279 280 280 280 283 285 287 287 288 290 291 293 294 296 297 300 301 302 305 306 308 307 308 308 312 313 313 316 318 317 318 320 322 325
272 272 273 272 273 274 275 276 277 278 279 280 281 280 281 283 284 285 286 288 290 291 293 294 295 295 297 298 300 302 306 306 304 306 307 309 312 309 314 313 315 315 318 319 321
271 271 270 270 271 272 275 274 274 274 276 277 278 278 281 283 283 285 286 288 289 290 292 293 294 292 293 295 296 300 305 300 304 304 306 307 309 307 310 311 312 313 316 317 319
270 271 270 270 270 272 272 272 275 276 278 279 279 280 282 283 284 286 287 289 290 290 290 291 292 293 294 294 295 301 298 300 300 302 303 305 303 305 306 308 309 310 313 315 318
Height
10719 10721 10722 10724 10725 10726 10727 10727 10726 10726 10725 10724 10722 10721 10720 10719 10719 10719 10719 10719 10719 10718 10717 10715 10712 10708 10705 10701 10699 10695 10693 10690 10683 10677 10671 10663 10652 10642 10637 10635 10632 10624 10625 10630 10627
10714 10715 10717 10718 10718 10719 10720 10720 10719 10719 10718 10716 10713 10710 10709 10710 10712 10712 10713 10714 10713 10711 10710 10707 10703 10698 10695 10693 10690 10686 10683 10679 10673 10666 10659 10651 10641 10631 10622 10611 10601 10594 10599 10601 10597
10708 10709 10710 10711 10711 10712 10713 10712 10712 10711 10710 10708 10704 10701 10698 10701 10705 10707 10709 10708 10706 10705 10703 10698 10695 10691 10687 10685 10682 10678 10673 10668 10664 10655 10646 10640 10630 10613 10604 10592 10578 10575 10573 10574 10571
10702 10703 10703 10703 10703 10704 10705 10704 10704 10703 10702 10701 10698 10695 10694 10697 10700 10702 10702 10700 10698 10697 10693 10689 10685 10682 10680 10676 10672 10667 10662 10658 10653 10644 10633 10624 10618 10598 10582 10569 10559 10555 10548 10539 10542
10695 10695 10696 10696 10696 10696 10695 10695 10695 10695 10694 10693 10692 10691 10691 10693 10694 10695 10694 10693 10691 10687 10683 10680 10676 10673 10670 10665 10659 10653 10650 10647 10642 10633 10624 10611 10609 10590 10571 10554 10541 10531 10525 10511 10512
10687 10688 10687 10687 10687 10686 10686 10686 10686 10686 10685 10686 10686 10686 10686 10687 10688 10688 10687 10686 10683 10679 10676 10672 10669 10665 10659 10653 10649 10643 10638 10633 10629 10621 10612 10594 10593 10580 10563 10541 10523 10512 10505 10494 10489
10678 10677 10677 10677 10676 10676 10676 10677 10677 10677 10677 10678 10679 10680 10681 10681 10681 10681 10679 10678 10675 10671 10667 10664 10661 10656 10650 10644 10639 10633 10626 10622 10617 10610 10602 10588 10574 10565 10551 10533 10514 10496 10486 10480 10471
10668 10667 10666 10665 10664 10665 10667 10668 10669 10669 10670 10671 10672 10673 10674 10675 10675 10674 10671 10668 10665 10662 10659 10655 10651 10646 10641 10636 10630 10623 10614 10607 10604 10597 10590 10578 10567 10549 10534 10521 10504 10486 10471 10464 10459
10658 10656 10653 10651 10651 10653 10657 10659 10661 10661 10662 10663 10665 10666 10667 10667 10666 10665 10663 10659 10656 10653 10650 10646 10642 10636 10631 10626 10619 10612 10605 10598 10591 10583 10573 10565 10555 10544 10532 10519 10499 10479 10460 10451 10448
10647 10643 10638 10634 10633 10636 10642 10648 10652 10654 10655 10656 10658 10660 10660 10659 10658 10656 10654 10650 10646 10643 10640 10635 10630 10626 10621 10616 10611 10605 10596 10584 10579 10574 10561 10553 10544 10533 10522 10509 10493 10475 10455 10442 10437
10637 10631 10623 10618 10619 10624 10629 10637 10644 10647 10648 10650 10651 10651 10652 10651 10649 10647 10643 10640 10636 10632 10628 10623 10619 10616 10611 10605 10599 10592 10585 10578 10566 10562 10555 10539 10529 10523 10513 10501 10488 10470 10452 10436 10427
10627 10622 10614 10610 10612 10617 10623 10630 10635 10639 10642 10643 10643 10643 10644 10642 10639 10636 10632 10629 10625 10621 10617 10612 10608 10604 10599 10593 10587 10580 10573 10567 10556 10546 10544 10533 10514 10509 10501 10490 10478 10466 10449 10431 10421
10621 10619 10614 10612 10613 10616 10621 10626 10630 10633 10634 10635 10636 10635 10634 10632 10628 10625 10621 10617 10613 10608 10605 10601 10596 10592 10586 10581 10575 10568 10562 10554 10549 10540 10524 10525 10508 10496 10487 10480 10471 10460 10444 10429 10415
10614 10613 10613 10612 10613 10615 10619 10622 10624 10626 10627 10626 10626 10625 10623 10621 10616 10611 10608 10604 10600 10597 10593 10589 10583 10579 10573 10567 10561 10555 10549 10542 10535 10529 10517 10509 10508 10491 10480 10470 10462 10450 10438 10423 10409
10607 10608 10609 10609 10609 10611 10613 10615 10617 10618 10619 10617 10615 10613 10611 10608 10605 10598 10595 10591 10588 10584 10580 10576 10571 10566 10561 10553 10547 10541 10535 10530 10521 10514 10504 10490 10484 10478 10469 10454 10451 10442 10431 10417 10401
10599 10601 10602 10604 10604 10605 10606 10607 10609 10609 10608 10606 10604 10601 10598 10594 10591 10588 10583 10579 10576 10572 10567 10562 10557 10552 10547 10538 10532 10526 10520 10516 10511 10502 10496 10481 10466 10467 10457 10442 10437 10431 10422 10408 10393
10591 10592 10594 10596 10596 10597 10598 10598 10599 10597 10596 10596 10592 10590 10586 10582 10579 10575 10571 10565 10561 10558 10554 10550 10543 10538 10532 10523 10517 10509 10503 10499 10498 10490 10481 10470 10457 10445 10441 10429 10421 10411 10408 10397 10384
10585 10585 10585 10586 10586 10587 10587 10588 10587 10584 10582 10582 10579 10576 10572 10567 10565 10562 10558 10551 10545 10540 10539 10536 10532 10522 10516 10509 10502 10494 10486 10480 10475 10473 10467 10456 10444 10430 10426 10414 10408 10394 10391 10382 10373
10577 10577 10577 10577 10577 10577 10577 10577 10574 10570 10570 10568 10565 10563 10559 10553 10550 10549 10545 10538 10530 10525 10519 10518 10515 10508 10501 10492 10485 10482 10472 10464 10459 10458 10449 10447 10435 10413 10411 10398 10393 10380 10373 10366 10359
10571 10569 10566 10567 10566 10566 10566 10563 10558 10556 10556 10553 10551 10548 10544 10538 10534 10532 10530 10525 10517 10508 10505 10503 10497 10492 10484 10475 10467 10462 10456 10447 10442 10436 10431 10431 10423 10395 10400 10388 10380 10367 10360 10349 10340
10561 10559 10556 10556 10555 10554 10552 10549 10546 10542 10540 10538 10535 10532 10528 10523 10520 10517 10514 10508 10501 10492 10490 10483 10482 10477 10466 10459 10451 10446 10438 10428 10424 10416 10408 10405 10412 10377 10380 10369 10361 10350 10344 10335 10323
10548 10547 10543 10541 10542 10540 10538 10536 10533 10527 10522 10521 10518 10515 10512 10505 10504 10499 10495 10484 10480 10476 10473 10466 10466 10457 10449 10439 10434 10430 10420 10411 10403 10400 10392 10384 10395 10366 10362 10353 10339 10331 10326 10318 10307
10532 10531 10527 10525 10526 10522 10522 10521 10518 10510 10504 10505 10502 10497 10490 10485 10480 10481 10474 10466 10460 10455 10452 10448 10448 10437 10432 10421 10416 10414 10403 10395 10382 10377 10373 10366 10360 10349 10343 10338 10322 10313 10304 10297 10288
10512 10513 10509 10510 10506 10505 10505 10505 10498 10492 10487 10484 10485 10475 10467 10466 10459 10460 10451 10446 10441 10434 10432 10426 10427 10418 10411 10398 10393 10392 10387 10375 10361 10354 10349 10350 10345 10319 10317 10316 10304 10297 10289 10280 10270
10488 10490 10489 10495 10485 10485 10486 10489 10478 10470 10467 10465 10465 10452 10445 10446 10437 10431 10425 10422 10422 10412 10410 10405 10405 10395 10394 10379 10376 10371 10367 10350 10336 10329 10323 10332 10316 10304 10303 10293 10283 10273 10268 10258 10250
10464 10463 10464 10470 10465 10464 10464 10464 10457 10447 10447 10446 10439 10430 10426 10424 10408 10406 10400 10400 10400 10393 10384 10379 10377 10369 10374 10361 10352 10358 10349 10323 10316 10304 10299 10300 10306 10268 10280 10271 10261 10255 10250 10240 10231
10439 10438 10436 10448 10442 10445 10441 10438 10434 10425 10432 10418 10413 10408 10406 10398 10388 10385 10376 10376 10372 10372 10362 10352 10345 10334 10340 10336 10334 10347 10327 10309 10296 10282 10272 10274 10269 10268 10256 10248 10238 10230 10226 10218 10209